KUIPER-00294

Last updated on Sun Apr 12 2026 00:02:10 GMT+0000 (Coordinated Universal Time)

1 68594U 26072X 26101.50002315 .00051885 00000+0 14486-2 0 9996 2 68594 51.8672 139.4989 0009808 141.8726 86.5915 15.36168623 1466
UTC large
Height (km)
Speed (km/s)
/
Latitude / Longitude
Inclination (degrees)
Orbital Period (minutes)
Azimuth
Elevation
Range (km)
Doppler Factor

Next 0 passes for location: London (51.5072 / 0.1276)

Sorry there are no passes over London.
KUIPER-00294